Flag for Germany Weather past 2 weeks in Herford, North Rhine-Westphalia, Germany

45 °F

Broken clouds.

Feels Like: 37 °F
Forecast: 42 / 51 °F
Wind: 18 mph from West

Location: Bueckeburg

Current Time: Nov 30, 2015 at 9:59:43 AM

Latest Report: Nov 30, 2015 at 9:20 AM

Visibility: N/A

Pressure: 29.98 "Hg

Humidity: 66%

Dew point: 34 °F

Location of HerfordLocation

Historic Weather in Herford — Graph


Herford temperature yesterday

Maximum temperature yesterday: 52 °F (at 7:20 PM)
Minimum temperature yesterday: 43 °F (at 12:20 AM)
Average temperature yesterday: 47 °F

Past Weeks' High & Low Weather Summary

High59 °F (Nov 17, 9:48 PM)100% (Nov 16, 1:20 AM)30.21 "Hg (Nov 16, 1:20 AM)
Low32 °F (Nov 22, 1:20 AM)57% (Nov 24, 2:20 PM)29.33 "Hg (Nov 21, 5:20 AM)
Average45 °F85%29.76 "Hg
* Reported Nov 15 7:20 AM — Nov 30 7:20 AM, Herford, Weather by CustomWeather, © 2015

Note: Actual official high and low records may vary slightly from our data, if they occured in-between our weather recording intervals... More about our weather records


Herford weather history for previous 24 hours

Time TempWeatherWind HumidityBarometerVisibility
7:20 AM
Mon, Nov 30
45 °FPassing clouds.18 mph71%29.92 "HgN/A
6:20 AM45 °FPassing clouds.24 mph66%29.89 "HgN/A
5:20 AM46 °FPartly cloudy.24 mph62%29.86 "HgN/A
4:20 AM46 °FPartly cloudy.23 mph66%29.80 "HgN/A
3:20 AM46 °FPassing clouds.24 mph66%29.80 "HgN/A
2:20 AM48 °FPassing clouds.30 mph62%29.77 "HgN/A
1:20 AM48 °FPartly cloudy.30 mph66%29.71 "HgN/A
12:20 AM48 °FPassing clouds.28 mph76%29.68 "HgN/A
11:20 PM
Sun, Nov 29
48 °FPassing clouds.22 mph82%29.65 "HgN/A
10:20 PM48 °FLight rain. Partly cloudy.26 mph82%29.62 "Hg5 mi
9:20 PM50 °FHeavy rain. Fog.22 mph94%29.56 "Hg3 mi
8:59 PM50 °FHeavy rain. Passing clouds.25 mph94%29.53 "Hg4 mi
8:20 PM50 °FRain. Partly cloudy.26 mph88%29.56 "Hg4 mi
7:20 PM52 °FPartly cloudy.29 mph82%29.59 "HgN/A
6:20 PM50 °FLight rain. Passing clouds.22 mph88%29.59 "Hg6 mi
5:20 PM50 °FLight rain. Passing clouds.20 mph88%29.62 "Hg4 mi
4:20 PM50 °FLight rain. Passing clouds.24 mph88%29.62 "Hg4 mi
3:20 PM48 °FLight rain. Mostly cloudy.18 mph87%29.65 "Hg6 mi
2:20 PM50 °FMostly cloudy.17 mph82%29.68 "HgN/A
1:20 PM48 °FMostly cloudy.16 mph87%29.68 "HgN/A
12:20 PM46 °FLight rain. Broken clouds.18 mph93%29.71 "HgN/A
11:20 AM46 °FRain. Partly sunny.9 mph93%29.71 "Hg5 mi
10:20 AM46 °FRain. Cloudy.17 mph87%29.71 "Hg5 mi
9:20 AM46 °FBroken clouds.17 mph87%29.71 "HgN/A
Weather by CustomWeather, © 2015

See weather overviewHow to use our weather pages